Погода в Жердевке

Погода в Жердевке : погода сейчас, прогноз погоды и архив. Всё, что Вы хотите узнать о погоде в Жердевке!

Хотите узнать прогноз погоды в Жердевке? Тогда Вам сюда: Погода в Жердевке

Поиск расширенной информации на нашем сайте:

Другие новости

Новости СМИ2

Главная страница сайта

Новости сайта

02.10.2013

Напоминаем, что на нашем новом сайте вы можете получить высокодетализированные прогнозы погоды по пунктам России, СНГ и мира (включающие важные для авиации метеовеличины, такие как направление и скорость ветра, видимость, явления погоды, количество и форма облачности, нижняя и верхняя граница облачности), а также ознакомиться с разнообразными материалами по авиационной метеорологии и подборкой полезных ссылок на эту тему.

Сайт Метеоцентр.Азия посвящён разработке технологий оптимизации авиаметеорологического обслуживания, включая проектирование и перспективное создание нескольких автоматизированных авиаметеорологических систем:
- система выпуска высокодетальных прогностических карт явлений погоды для нижнего воздушного пространства по России и ближнему зарубежью;
- система верификации прогнозов TAF (выпускаемых синоптиками официальных АМСГ РФ и ближнего зарубежья) и AUTOTAF (выпускаемых сайтом Метеоцентр.Азия) - выявление ошибок, онлайн-сопоставление с фактической погодой METAR, автоматическое внесение коррективов в прогнозы при резком отклонении фактической погоды от прогноза, подсчёт оправдываемости прогнозов по элементам и в целом;
- система обработки, анализа и отображения авиаметеорологической информации для применения провайдерами метеорологической информации.


Погода в Жердевке - сегодня

Время (UTC), дата Ветер
(°,м/с) 
Видим.   Явления Облачность Т
(°С)
Тd
(°С)
f(%) Тe
(°С)
Pmin
(гПа)
dP
(гПа)
Po
(мм)
O2
(г/м3)
Тmin Tmax R s Состояние
почвы
06 21.03.17 110 (В) 4000 м  слаб. ливневой дождь  10/10 400 м кучево-дожд. 
[Cb cap]
+1.8 +0.5 91 1013.7  1.6  747  299  +1.4         
09 21.03.17 100 (В) 4000 м  дымка{ливн. осадки}  10/10 400 м кучево-дожд. 
[Cb cap]
+4.3 +2.6 89 +4  1014.3  0.7  747  296           
12 21.03.17 090 (В) 10 км  {ливн. осадки}  10/10 500 м кучево-дожд. 
[Cb cap]
+6 +3.4 83 +5  1014.4  0.2  747  294           
15 21.03.17 010 (С) 10 км    10/10 570 м кучево-дожд. 
[Cb cap]
+5.7 +2.8 82 +5  1015.7  1.3  748  295    +6.6  0.0     
18 21.03.17 030 (СВ) 10 км    10/10 600 м кучево-дожд. 
[Cb cap]
+4.7 +2.7 87 +6  1017.5  1.7  749  296           
21 21.03.17 030 (СВ) 10 км    10/10 600 м кучево-дожд. 
[Cb cap]
+3.5 +1.7 88 +4  1017.3  -0.5  749  298           
00 22.03.17 010 (С) 10 км    10/10 630 м кучево-дожд. 
[Cb cap]
+1.4 -0.3 88 +1  1018.8  1.2  750  301           
03 22.03.17 330 (СЗ) 10 км    8/8 660 м кучево-дожд. 
[Cb cap]
-0.3 -1.8 90 1019.9  751  303  -0.5         
06 22.03.17 340 (С) 4000 м  дымка  5/0 средняя 
[Ac trans]
+0.8 -0.3 92 -1  1020.6  0.7  752  302  -0.6         
09 22.03.17 070 (В) 10 км    3/0 верхняя 
[Ci fib]
+6.5 +0.1 64 +6  1019.9  -0.3  751  296           
12 22.03.17 030 (СВ) 20000 м    ясно 
+9.5 +1.5 57 +9  1019.3  -0.3  751  292           
15 22.03.17 060 (СВ) 20000 м    ясно 
+9.6 +1.7 58 +9  1019.5  0.2  751  292    +10.1       
18 22.03.17 120 (ЮВ) 20000 м    ясно 
+5 +0.3 72 +5  1021  1.1  752  298           
21 22.03.17 180 (Ю) 20000 м    ясно 
+1.2 -2 79 +1  1021.8  0.5  752  302           
00 23.03.17 170 (Ю) 20000 м    ясно 
-0.5 -2.6 86 1021.9  0.1  752  304           
03 23.03.17 170 (Ю) 20000 м    3/0 верхняя 
[Ci fib]
-1.8 -2.9 92 -3  1022.1  0.1  753  306  -2.1         
06 23.03.17 170 (Ю) 10 км    10/0 средняя 
[As trans]
+1 -0.4 90 1021.9  -0.1  752  302           
09 23.03.17 190 (Ю) 20000 м    10/0 средняя 
[As trans]
+7.4 +2.3 70 +6  1021.1  -0.2  752  295           
12 23.03.17 200 (Ю) 20000 м    10/0 средняя 
[As trans]
+11.1 +5 66 +10  1020.4  -0.5  752  290           
15 23.03.17 320 (СЗ) 10 км  слаб. ливневой дождь  10/10 630 м кучево-дожд. 
[Cb cap]
+9.3 +6.2 81 +9  1020.8  0.3  752  292    +11.3  0.0     
18 23.03.17 350 (С) 10 км  {ливн. осадки}  10/10 570 м кучево-дожд. 
[Cb cap]
+6.1 +5 93 +6  1022.8  1.7  753  296           
21 23.03.17 350 (С) 10 км    ясно 
+4 +2.5 90 +4  1025.1  2.1  755  299           
00 24.03.17 320 (СЗ) 4000 м  дымка  ясно 
-0.2 -1.1 94 1025.7  0.4  755  305           
03 24.03.17 320 (СЗ) 0500 м  туман  ясно 
-2.3 -2.9 96 -2  1026  0.1  755  307  -2.4    0.0     
06 24.03.17 тихо ()   4000 м  дымка{туман}  10/0 средняя 
[As trans]
+1.1 +0.6 96 +1  1025.5  -0.3  755  303  -3.2        замёрзшая 
Время (UTC), дата Ветер
(°,м/с) 
Видим.   Явления Облачность Т
(°С)
Тd
(°С)
f(%) Тe
(°С)
Pmin
(гПа)
dP
(гПа)
Po
(мм)
O2
(г/м3)
Тmin Tmax R s Состояние
почвы

Для получения пояснительной информации подведите курсор к названию столбца.

ПОГОДА в Жердевке - архив

Всё, что Вы хотите узнать о погоде в Жердевке - удобно и подробно!

Выберите нужную дату (начиная с 1 января 2015* года) и нажмите кнопку "Найти".
Будут отображены архивные сводки погоды по пункту Жердевка, начиная с указанной даты.


Отображать данные в формате CSV (для использования в таблицах Excel)


Внимание! Наш архив погоды предназначен исключительно для личного некоммерческого использования в познавательных целях. Если Вам необходимы официальные справки о состоянии погоды (для производственных, юридических, коммерческих и т.п. целей), обращайтесь в органы Росгидромета.

*Примечание: данная дата относится к архиву по метеостанциям СССР (Россия, СНГ, Балтия).
Архив по метеостанциям Зарубежной Европы и Азии (кроме Китая) хранится 10 дней, по другим регионам земного шара (Китай, Африка, Америка, Австралия, Океания) - 1 день.

Жердевка - район местоположения метеостанции


Название, широта, долгота, высота метеостанции:
Жердевка 51.8°ш. 41.5°д. 147 м над ур. моря [Российская Федерация]

Дополнительная информация

В oтличие oт бoльшинства пoгoдных сайтoв мы публикуем пoдрoбную метеoинфoрмацию в детальнoм прoфессиoнальнoм фoрмате.

Характеристики температуры и влажнoсти вoздуха измеряются на высoте 2 м в тени вдали oт зданий и деревьев.
Скoрoсть ветра измеряется на высoте 10 м (на урoвне рoста челoвека скoрoсть ветра ниже в 1.5-2 раза). Если метеoстанция нахoдится в гoрoде или в лесу, тo скoрoсть ветра занижена на 2-4 м/с пo сравнению с oткрытым местoм. Скoрoсть ветра над акватoриями крупных рек и oзёр, а также на вершинах хoлмoв на 2-5 м/с выше, чем в oбычных услoвиях.
Атмoсфернoе давление в разных тoчках местнoсти мoжет значительнo oтличаться oт давления на метеoстанции, в зависимoсти oт услoвий рельефа (при пoдъёме на 10 м давление пoнижается примернo на 1 мм рт.ст.).